NSZ3291 BKPR-EKCH

Flight info

Callsign NSZ3291
Flight time N/A
Altitude 36000
Route SARAX1D SARAX DCT BOSNA DCT KOPRY DCT SASAL DCT LANUX DCT HDO M725 GERGA T239 PEROM T298 KOSEB DCT MONAK
Aircraft B738/M-SDE2E3FGHIRWXY/LB1

Departure

Time 2026-04-25 20:16
Airport Priština Adem Jashari International Airport (BKPR)

Arrival

Time N/A
Airport Copenhagen Kastrup Airport (EKCH)
Time Latitude Longitude Altitude Speed Heading
2026-04-25 19:41 42.57505 21.03106 1786 ft 0 kts 266°
2026-04-25 20:03 42.57507 21.03136 1786 ft 4 kts 265°
2026-04-25 20:03 42.57509 21.03173 1786 ft 4 kts 260°
2026-04-25 20:03 42.57517 21.03207 1784 ft 4 kts 233°
2026-04-25 20:04 42.57530 21.03220 1784 ft 0 kts 176°
2026-04-25 20:09 42.57521 21.03222 1783 ft 3 kts 168°
2026-04-25 20:09 42.57477 21.03226 1786 ft 9 kts 176°
2026-04-25 20:09 42.57395 21.03233 1786 ft 14 kts 176°
2026-04-25 20:09 42.57326 21.03302 1786 ft 14 kts 95°
2026-04-25 20:10 42.57251 21.03349 1786 ft 13 kts 178°
2026-04-25 20:10 42.57157 21.03357 1784 ft 15 kts 175°
2026-04-25 20:10 42.57047 21.03369 1785 ft 16 kts 175°
2026-04-25 20:10 42.56939 21.03381 1785 ft 16 kts 176°
2026-04-25 20:11 42.56814 21.03392 1779 ft 20 kts 176°
2026-04-25 20:11 42.56673 21.03404 1780 ft 20 kts 176°
2026-04-25 20:11 42.56540 21.03442 1782 ft 20 kts 180°
2026-04-25 20:11 42.56386 21.03437 1783 ft 25 kts 177°
2026-04-25 20:12 42.56202 21.03456 1790 ft 28 kts 176°
2026-04-25 20:12 42.56014 21.03477 1792 ft 26 kts 175°
2026-04-25 20:12 42.55844 21.03497 1794 ft 20 kts 167°
2026-04-25 20:12 42.55809 21.03540 1798 ft 0 kts 109°
2026-04-25 20:13 42.55809 21.03541 1796 ft 1 kts 109°
2026-04-25 20:13 42.55807 21.03564 1798 ft 1 kts 91°
2026-04-25 20:14 42.55808 21.03592 1798 ft 6 kts 88°
2026-04-25 20:14 42.55808 21.03607 1798 ft 0 kts 89°
2026-04-25 20:15 42.55815 21.03670 1798 ft 13 kts 76°
2026-04-25 20:15 42.55901 21.03729 1797 ft 21 kts 352°
2026-04-25 20:15 42.56241 21.03693 1788 ft 84 kts 355°
2026-04-25 20:15 42.57043 21.03597 1786 ft 144 kts 357°
2026-04-25 20:16 42.58200 21.03498 1926 ft 180 kts 359°
2026-04-25 20:16 42.59474 21.03461 2533 ft 185 kts 360°
2026-04-25 20:16 42.60698 21.03366 3428 ft 169 kts 355°
2026-04-25 20:16 42.61894 21.03210 3929 ft 182 kts 355°
2026-04-25 20:17 42.63266 21.02928 3962 ft 217 kts 340°
2026-04-25 20:17 42.64485 21.01591 4222 ft 240 kts 303°
2026-04-25 20:17 42.65414 20.99675 4871 ft 246 kts 304°
2026-04-25 20:17 42.66387 20.97781 4966 ft 245 kts 305°
2026-04-25 20:18 42.67369 20.95893 5001 ft 245 kts 305°
2026-04-25 20:18 42.68356 20.93998 4994 ft 246 kts 304°
2026-04-25 20:18 42.69012 20.91888 4971 ft 243 kts 274°
2026-04-25 20:18 42.68808 20.89627 5025 ft 248 kts 259°
2026-04-25 20:19 42.68902 20.87196 4787 ft 271 kts 292°
2026-04-25 20:19 42.70026 20.85182 5229 ft 266 kts 315°
2026-04-25 20:19 42.71326 20.83378 6082 ft 268 kts 313°
2026-04-25 20:19 42.72591 20.81527 6968 ft 267 kts 312°
2026-04-25 20:20 42.73835 20.79620 7704 ft 273 kts 311°
2026-04-25 20:20 42.75078 20.77639 8459 ft 276 kts 310°
2026-04-25 20:20 42.76307 20.75624 9292 ft 278 kts 310°
2026-04-25 20:20 42.77532 20.73569 10056 ft 281 kts 309°
2026-04-25 20:21 42.78775 20.71448 10484 ft 297 kts 309°
2026-04-25 20:21 42.80111 20.69144 10631 ft 321 kts 309°
2026-04-25 20:21 42.81534 20.66665 10790 ft 343 kts 308°
2026-04-25 20:21 42.83023 20.64049 11198 ft 354 kts 308°
2026-04-25 20:22 42.84535 20.61375 11837 ft 358 kts 308°
2026-04-25 20:22 42.85541 20.59589 12281 ft 360 kts 308°
2026-04-25 20:22 42.87588 20.55945 13161 ft 364 kts 308°
2026-04-25 20:22 42.89137 20.53181 13785 ft 369 kts 308°
2026-04-25 20:23 42.90699 20.50388 14375 ft 372 kts 308°
2026-04-25 20:23 42.92275 20.47568 15011 ft 374 kts 308°
2026-04-25 20:23 42.93854 20.44737 15638 ft 376 kts 308°
2026-04-25 20:23 42.95446 20.41882 16246 ft 379 kts 307°
2026-04-25 20:24 42.97045 20.39012 16830 ft 382 kts 307°
2026-04-25 20:24 42.98665 20.36100 17392 ft 386 kts 307°
2026-04-25 20:24 43.00273 20.33206 17954 ft 389 kts 307°
2026-04-25 20:24 43.01916 20.30247 18509 ft 392 kts 307°
2026-04-25 20:25 43.03569 20.27268 18997 ft 395 kts 307°
2026-04-25 20:25 43.05235 20.24261 19505 ft 398 kts 307°
2026-04-25 20:25 43.06907 20.21240 20002 ft 400 kts 307°
2026-04-25 20:25 43.08588 20.18201 20500 ft 403 kts 307°
2026-04-25 20:26 43.10286 20.15129 20965 ft 405 kts 307°
2026-04-25 20:26 43.11993 20.12036 21446 ft 408 kts 307°
2026-04-25 20:26 43.13703 20.08934 21940 ft 410 kts 307°
2026-04-25 20:26 43.15423 20.05810 22397 ft 412 kts 307°
2026-04-25 20:27 43.17156 20.02661 22831 ft 415 kts 307°
2026-04-25 20:27 43.18899 19.99489 23255 ft 418 kts 307°
2026-04-25 20:27 43.20649 19.96302 23686 ft 420 kts 307°
2026-04-25 20:27 43.22409 19.93092 24044 ft 422 kts 306°
2026-04-25 20:28 43.24180 19.89860 24408 ft 425 kts 306°
2026-04-25 20:28 43.25955 19.86622 24777 ft 426 kts 306°
2026-04-25 20:28 43.27739 19.83368 25145 ft 427 kts 306°
2026-04-25 20:28 43.29530 19.80097 25492 ft 429 kts 306°
2026-04-25 20:29 43.31323 19.76816 25841 ft 431 kts 306°
2026-04-25 20:29 43.33124 19.73512 26179 ft 433 kts 306°
2026-04-25 20:29 43.34931 19.70193 26505 ft 435 kts 306°